• In Hungary
  • List of Countries
  • For 7 days
  • Water Temperature
  • Satellite Maps
  • Weather Map
  • News
  • Weather Widgets
  • user-avatar
    Login

    Hourly Weather Honholoy

    Today, 25 February, Sunday

    Time Temperature Precipitation Wind Pressure Humidity
    00:00 -18°C° 0 mm 1 mps 689 mmHg 96%
    01:00 -18°C° 0 mm 1 mps 688 mmHg 95%
    02:00 -18°C° 0 mm 1 mps 688 mmHg 94%
    03:00 -18°C° 0 mm 1 mps 688 mmHg 94%
    04:00 -19°C° 0 mm 1 mps 688 mmHg 93%
    05:00 -19°C° 0 mm 1 mps 688 mmHg 93%
    06:00 -19°C° 0 mm 1 mps 688 mmHg 92%
    07:00 -19°C° 0 mm 1 mps 688 mmHg 91%
    08:00 -16°C° 0 mm 1 mps 688 mmHg 88%
    09:00 -13°C° 0 mm 1 mps 688 mmHg 85%
    10:00 -11°C° 0 mm 1 mps 688 mmHg 81%
    11:00 -9°C° 0 mm 1 mps 687 mmHg 80%
    12:00 -7°C° 0 mm 1 mps 687 mmHg 79%
    13:00 -6°C° 0 mm 0 mps 687 mmHg 78%
    14:00 -6°C° 0 mm 1 mps 687 mmHg 81%
    15:00 -6°C° 0 mm 1 mps 687 mmHg 83%
    16:00 -6°C° 0 mm 1 mps 687 mmHg 85%
    17:00 -8°C° 0 mm 1 mps 687 mmHg 88%
    18:00 -9°C° 0 mm 1 mps 687 mmHg 90%
    19:00 -11°C° 0 mm 1 mps 688 mmHg 93%
    20:00 -11°C° 0 mm 1 mps 688 mmHg 94%
    21:00 -12°C° 0 mm 1 mps 688 mmHg 94%
    22:00 -12°C° 0 mm 1 mps 689 mmHg 95%
    23:00 -13°C° 0.1 mm 1 mps 689 mmHg 95%

    Tomorrow, 26 February, Monday

    Time Temperature Precipitation Wind Pressure Humidity
    00:00 -13°C° 0.1 mm 1 mps 689 mmHg 95%
    01:00 -13°C° 0.1 mm 1 mps 690 mmHg 95%
    02:00 -13°C° 0.1 mm 1 mps 690 mmHg 96%
    03:00 -13°C° 0.1 mm 1 mps 690 mmHg 96%
    04:00 -13°C° 0.1 mm 1 mps 691 mmHg 97%
    05:00 -13°C° 0.1 mm 1 mps 691 mmHg 97%
    06:00 -13°C° 0.1 mm 1 mps 692 mmHg 97%
    07:00 -12°C° 0.1 mm 1 mps 692 mmHg 97%
    08:00 -12°C° 0.1 mm 1 mps 692 mmHg 93%
    09:00 -11°C° 0.1 mm 1 mps 692 mmHg 89%
    10:00 -12°C° 0.1 mm 2 mps 693 mmHg 86%
    11:00 -10°C° 0 mm 2 mps 692 mmHg 83%
    12:00 -10°C° 0 mm 2 mps 692 mmHg 81%
    13:00 -9°C° 0 mm 2 mps 692 mmHg 79%
    14:00 -9°C° 0 mm 1 mps 692 mmHg 80%
    15:00 -9°C° 0 mm 1 mps 691 mmHg 81%
    16:00 -9°C° 0 mm 1 mps 691 mmHg 82%
    17:00 -11°C° 0 mm 0 mps 691 mmHg 85%
    18:00 -13°C° 0 mm 0 mps 690 mmHg 88%
    19:00 -15°C° 0 mm 0 mps 690 mmHg 91%
    20:00 -15°C° 0 mm 0 mps 690 mmHg 92%
    21:00 -15°C° 0 mm 0 mps 690 mmHg 93%
    22:00 -16°C° 0 mm 1 mps 690 mmHg 94%
    23:00 -16°C° 0 mm 0 mps 689 mmHg 95%

    Day after tomorrow, 27 February, Tuesday

    Time Temperature Precipitation Wind Pressure Humidity
    00:00 -16°C° 0 mm 0 mps 689 mmHg 95%
    01:00 -17°C° 0 mm 0 mps 689 mmHg 96%
    02:00 -16°C° 0.1 mm 0 mps 689 mmHg 96%
    03:00 -16°C° 0.1 mm 1 mps 688 mmHg 96%
    04:00 -16°C° 0.1 mm 1 mps 688 mmHg 97%
    05:00 -16°C° 0.1 mm 1 mps 688 mmHg 97%
    06:00 -16°C° 0.1 mm 1 mps 688 mmHg 97%
    07:00 -16°C° 0.1 mm 1 mps 688 mmHg 97%
    08:00 -14°C° 0.1 mm 1 mps 688 mmHg 95%
    09:00 -13°C° 0.1 mm 1 mps 688 mmHg 92%
    10:00 -11°C° 0.1 mm 1 mps 688 mmHg 90%
    11:00 -11°C° 0.1 mm 1 mps 687 mmHg 88%
    12:00 -10°C° 0.1 mm 1 mps 687 mmHg 86%
    13:00 -9°C° 0.1 mm 1 mps 686 mmHg 84%
    14:00 -9°C° 0.1 mm 1 mps 686 mmHg 83%
    15:00 -12°C° 0.1 mm 2 mps 686 mmHg 83%
    16:00 -12°C° 0.1 mm 2 mps 686 mmHg 83%
    17:00 -14°C° 0 mm 2 mps 686 mmHg 86%
    18:00 -14°C° 0 mm 1 mps 686 mmHg 89%
    19:00 -16°C° 0 mm 1 mps 686 mmHg 92%
    20:00 -17°C° 0 mm 1 mps 686 mmHg 93%
    21:00 -18°C° 0 mm 1 mps 687 mmHg 94%
    22:00 -19°C° 0 mm 1 mps 687 mmHg 95%
    23:00 -20°C° 0 mm 1 mps 687 mmHg 95%

    28 February, Wednesday

    Time Temperature Precipitation Wind Pressure Humidity
    00:00 -20°C° 0 mm 1 mps 687 mmHg 96%
    01:00 -21°C° 0 mm 1 mps 687 mmHg 96%
    02:00 -21°C° 0 mm 1 mps 687 mmHg 95%
    03:00 -22°C° 0 mm 1 mps 687 mmHg 94%
    04:00 -22°C° 0 mm 0 mps 688 mmHg 94%
    05:00 -22°C° 0 mm 1 mps 688 mmHg 94%
    06:00 -21°C° 0 mm 1 mps 689 mmHg 95%
    07:00 -20°C° 0 mm 1 mps 689 mmHg 95%
    08:00 -21°C° 0 mm 2 mps 690 mmHg 93%
    09:00 -21°C° 0 mm 3 mps 690 mmHg 90%
    10:00 -19°C° 0 mm 4 mps 690 mmHg 87%
    11:00 -19°C° 0 mm 4 mps 690 mmHg 85%
    12:00 -19°C° 0 mm 4 mps 690 mmHg 83%
    13:00 -18°C° 0 mm 4 mps 690 mmHg 81%
    14:00 -19°C° 0 mm 4 mps 690 mmHg 81%
    15:00 -19°C° 0 mm 4 mps 690 mmHg 82%
    16:00 -20°C° 0 mm 4 mps 690 mmHg 82%
    17:00 -22°C° 0 mm 3 mps 690 mmHg 86%
    18:00 -23°C° 0 mm 2 mps 690 mmHg 90%
    19:00 -23°C° 0 mm 1 mps 690 mmHg 95%
    20:00 -23°C° 0 mm 1 mps 689 mmHg 95%
    21:00 -24°C° 0 mm 1 mps 689 mmHg 95%
    22:00 -25°C° 0 mm 1 mps 689 mmHg 95%
    23:00 -25°C° 0 mm 1 mps 689 mmHg 95%

    1 March, Thursday

    Time Temperature Precipitation Wind Pressure Humidity
    00:00 -25°C° 0 mm 1 mps 688 mmHg 95%
    01:00 -27°C° 0 mm 1 mps 688 mmHg 94%
    02:00 -27°C° 0 mm 1 mps 687 mmHg 95%
    03:00 -27°C° 0 mm 1 mps 686 mmHg 95%
    04:00 -27°C° 0 mm 1 mps 686 mmHg 95%
    05:00 -27°C° 0 mm 1 mps 685 mmHg 94%
    06:00 -27°C° 0 mm 1 mps 685 mmHg 94%
    07:00 -27°C° 0 mm 1 mps 684 mmHg 94%
    08:00 -23°C° 0 mm 1 mps 684 mmHg 90%
    09:00 -20°C° 0 mm 1 mps 683 mmHg 87%
    10:00 -17°C° 0 mm 1 mps 683 mmHg 84%
    11:00 -15°C° 0 mm 1 mps 682 mmHg 82%
    12:00 -13°C° 0 mm 1 mps 681 mmHg 81%
    13:00 -11°C° 0 mm 1 mps 680 mmHg 79%
    14:00 -11°C° 0 mm 1 mps 680 mmHg 81%
    15:00 -11°C° 0 mm 1 mps 679 mmHg 83%
    16:00 -11°C° 0 mm 1 mps 678 mmHg 85%
    17:00 -13°C° 0.1 mm 1 mps 679 mmHg 89%
    18:00 -16°C° 0.1 mm 2 mps 679 mmHg 92%
    19:00 -17°C° 0.1 mm 2 mps 679 mmHg 95%
    20:00 -18°C° 0.1 mm 2 mps 679 mmHg 95%
    21:00 -18°C° 0.1 mm 2 mps 679 mmHg 95%
    22:00 -19°C° 0.1 mm 2 mps 680 mmHg 95%
    23:00 -19°C° 0 mm 2 mps 680 mmHg 95%

    2 March, Friday

    Time Temperature Precipitation Wind Pressure Humidity
    00:00 -19°C° 0 mm 2 mps 680 mmHg 95%
    01:00 -20°C° 0 mm 2 mps 681 mmHg 95%
    02:00 -20°C° 0 mm 2 mps 681 mmHg 95%
    03:00 -20°C° 0 mm 2 mps 682 mmHg 95%
    04:00 -21°C° 0 mm 2 mps 683 mmHg 96%
    05:00 -21°C° 0 mm 2 mps 683 mmHg 96%
    06:00 -23°C° 0 mm 2 mps 684 mmHg 96%
    07:00 -21°C° 0 mm 1 mps 685 mmHg 96%
    08:00 -21°C° 0 mm 2 mps 685 mmHg 92%
    09:00 -20°C° 0 mm 2 mps 686 mmHg 88%
    10:00 -19°C° 0 mm 3 mps 686 mmHg 85%
    11:00 -19°C° 0 mm 3 mps 686 mmHg 83%
    12:00 -18°C° 0 mm 3 mps 686 mmHg 81%
    13:00 -18°C° 0 mm 3 mps 685 mmHg 79%
    14:00 -18°C° 0 mm 3 mps 685 mmHg 80%
    15:00 -18°C° 0 mm 3 mps 685 mmHg 81%
    16:00 -17°C° 0 mm 2 mps 685 mmHg 81%
    17:00 -19°C° 0 mm 2 mps 685 mmHg 85%
    18:00 -21°C° 0 mm 2 mps 685 mmHg 89%
    19:00 -21°C° 0 mm 1 mps 685 mmHg 93%
    20:00 -22°C° 0 mm 1 mps 685 mmHg 93%
    21:00 -26°C° 0 mm 2 mps 685 mmHg 93%
    22:00 -26°C° 0 mm 2 mps 685 mmHg 93%
    23:00 -27°C° 0 mm 2 mps 685 mmHg 93%
    Show more